Showing default

FOSSASAT2E18 (TAT-A), 62686

Orbit data source: Space-Track

FOSSASAT2E18 (TAT-A), 62686 is a payload satellite owned by Fossa Systems (ES) in SSO that was launched on Tue, 14 Jan 2025 UTC via an FALCON 9 launch vehicle from the Air Force Western Test Range (AFWTR). Payload-class satellites include a variety of spacecraft equipped with specific instruments for various scientific and technological missions. These include communications satellites like Starlink; space stations such as the ISS; scientific satellites like the Hubble; Earth observation satellites from companies like Planet Labs, Umbra, and HawkEye 360; GPS; miniature CubeSats for education and research; and military/defense satellites.

Loading next visibility...
Identifier
62686, 2025-009CF
Orbit
SSO
Country
Flag of ESES / SPN
Related business
Manufacturer
Fossa Systems
Mission
Operational Commercial Communications
Bus & Motor
CUBESAT 3U, Unknown motor
Mass
4 kg wet, 4 kg dry
Launch date (UTC)
2025-01-14 (1 year ago)
Launch vehicle
FALCON 9
Launch site
Air Force Western Test Range (AFWTR)
Object type
Payload
Rocket body
Debris
Shape & HBR
Box + 2 Pan, 0.4 m
Radar Cross Section
0.035 m², Medium (>0.1 m² and < 1m²)

Expand to show TLE details & history
Last TLE update: 8 hours ago

TLE from 8 hours ago
0 FOSSASAT2E18 (TAT-A)
1 62686U 25009CF  26074.63251316  .00003346  00000-0  15619-3 0  9991
2 62686  97.4017 154.6607 0004700 314.5479  45.5372 15.20503479 64474
Epoch: 2026-03-15T15:10Z
TLE epoch observation values (Epoch: 2026-03-15T15:10:49.137Z)
Latitude
-0°
Longitude
113.71941°
Altitude
505.147 km
Speed
7.613 km/s
True Right ascension
10h 18m 38s
True Declination
0° 00' 00"
Sunlit
Object was in full shadow at epoch
Visualization orbit readout
Latitude
Unknown
Longitude
Unknown
Altitude
Unknown
Speed
Unknown
Apparent Right ascension
Unknown
Apparent Declination
Unknown
Sunlit
N/A
Visualization observer readout
Local Sidereal Time
03:51:49
Azimuth
Unknown
Elevation
Unknown
Doppler factor
Unknown
Orbital elements
Apogee altitude
504.519 km
Perigee altitude
498.053 km
Semi-major axis
6,879.423 km
Eccentricity
0.00047
Inclination
97.4017°
RAAN
154.6607°
Arg. of periapsis
314.5479°
True anomaly
45.57565°
Mean anomaly
45.5372°
Eccentric anomaly
45.55643°
Mean motion
3.80378 °/min
Orbital period
94.64 mins
BSTAR
0.00015619
Loading maneuver chart data...
Computing Atmospheric mass density...
Loading historical data...
Loading historical data...
Loading historical data...
Loading historical data...
Loading historical data...
Loading historical data...
Loading historical data...

Documentation

Showing up to 5 results
|